JBU329 KJFK-KRDU

Flight info

Callsign JBU329
Flight time 1h 9m
Altitude 36000
Route WAVEY EMJAY Q167 ZJAAY TAQLE3
Aircraft A320/M-SDE3FGHIRWY/LB1

Departure

Time 2026-05-06 23:35
Airport John F. Kennedy International Airport (KJFK)

Arrival

Time 2026-05-07 00:45
Airport Raleigh-Durham International Airport (KRDU)
Time Latitude Longitude Altitude Speed Heading
2026-05-06 22:55 40.64459 -73.77538 23 ft 0 kts 300°
2026-05-06 23:21 40.64456 -73.77532 23 ft 2 kts 300°
2026-05-06 23:21 40.64446 -73.77510 24 ft 3 kts 300°
2026-05-06 23:22 40.64437 -73.77489 23 ft 3 kts 318°
2026-05-06 23:22 40.64425 -73.77481 24 ft 3 kts 20°
2026-05-06 23:22 40.64414 -73.77488 24 ft 1 kts 30°
2026-05-06 23:22 40.64398 -73.77500 26 ft 3 kts 30°
2026-05-06 23:23 40.64381 -73.77513 24 ft 3 kts 30°
2026-05-06 23:23 40.64365 -73.77524 24 ft 1 kts 30°
2026-05-06 23:23 40.64364 -73.77526 24 ft 1 kts 30°
2026-05-06 23:25 40.64372 -73.77520 23 ft 3 kts 30°
2026-05-06 23:26 40.64419 -73.77484 23 ft 11 kts 30°
2026-05-06 23:26 40.64472 -73.77415 23 ft 11 kts 80°
2026-05-06 23:26 40.64473 -73.77320 23 ft 11 kts 88°
2026-05-06 23:26 40.64472 -73.77237 23 ft 6 kts 95°
2026-05-06 23:27 40.64469 -73.77219 23 ft 0 kts 105°
2026-05-06 23:28 40.64468 -73.77216 23 ft 1 kts 110°
2026-05-06 23:28 40.64467 -73.77211 23 ft 0 kts 110°
2026-05-06 23:30 40.64466 -73.77210 23 ft 1 kts 111°
2026-05-06 23:30 40.64443 -73.77147 23 ft 12 kts 105°
2026-05-06 23:30 40.64431 -73.77025 22 ft 15 kts 71°
2026-05-06 23:30 40.64535 -73.76968 19 ft 16 kts 27°
2026-05-06 23:31 40.64637 -73.76886 18 ft 19 kts 28°
2026-05-06 23:31 40.64754 -73.76795 19 ft 20 kts 31°
2026-05-06 23:31 40.64864 -73.76709 22 ft 15 kts 30°
2026-05-06 23:31 40.64960 -73.76638 22 ft 15 kts 29°
2026-05-06 23:32 40.65050 -73.76565 21 ft 15 kts 32°
2026-05-06 23:32 40.65103 -73.76491 22 ft 7 kts 91°
2026-05-06 23:32 40.65094 -73.76462 22 ft 1 kts 117°
2026-05-06 23:32 40.65089 -73.76452 24 ft 2 kts 122°
2026-05-06 23:33 40.65083 -73.76439 23 ft 1 kts 122°
2026-05-06 23:33 40.65078 -73.76427 23 ft 2 kts 122°
2026-05-06 23:33 40.65064 -73.76398 23 ft 6 kts 122°
2026-05-06 23:33 40.65018 -73.76359 22 ft 11 kts 176°
2026-05-06 23:34 40.64975 -73.76393 22 ft 0 kts 209°
2026-05-06 23:34 40.64962 -73.76403 22 ft 4 kts 209°
2026-05-06 23:34 40.64922 -73.76434 23 ft 15 kts 212°
2026-05-06 23:34 40.64664 -73.76635 20 ft 76 kts 211°
2026-05-06 23:35 40.64047 -73.77115 26 ft 127 kts 210°
2026-05-06 23:35 40.63490 -73.77553 28 ft 154 kts 211°
2026-05-06 23:35 40.62489 -73.78338 277 ft 176 kts 210°
2026-05-06 23:35 40.61051 -73.79483 1043 ft 187 kts 213°
2026-05-06 23:36 40.60296 -73.80093 1468 ft 190 kts 214°
2026-05-06 23:36 40.59169 -73.81011 2131 ft 191 kts 217°
2026-05-06 23:36 40.57990 -73.81835 2754 ft 198 kts 201°
2026-05-06 23:36 40.56569 -73.81757 3355 ft 217 kts 168°
2026-05-06 23:37 40.55269 -73.80567 3820 ft 243 kts 134°
2026-05-06 23:37 40.54467 -73.78495 4292 ft 269 kts 112°
2026-05-06 23:37 40.53905 -73.76030 4771 ft 291 kts 108°
2026-05-06 23:37 40.53380 -73.73427 5554 ft 298 kts 108°
2026-05-06 23:38 40.52705 -73.70846 6356 ft 299 kts 123°
2026-05-06 23:38 40.51402 -73.68757 7089 ft 295 kts 147°
2026-05-06 23:38 40.49802 -73.67064 7874 ft 298 kts 148°
2026-05-06 23:38 40.48169 -73.65358 8682 ft 301 kts 149°
2026-05-06 23:39 40.46518 -73.63634 9480 ft 305 kts 149°
2026-05-06 23:39 40.44853 -73.61888 10223 ft 310 kts 149°
2026-05-06 23:39 40.43102 -73.60066 10467 ft 332 kts 149°
2026-05-06 23:39 40.41231 -73.58122 10719 ft 353 kts 149°
2026-05-06 23:40 40.39262 -73.56067 10971 ft 370 kts 148°
2026-05-06 23:40 40.37222 -73.53923 11408 ft 379 kts 148°
2026-05-06 23:40 40.35153 -73.51735 12038 ft 384 kts 148°
2026-05-06 23:40 40.33064 -73.49524 12661 ft 388 kts 148°
2026-05-06 23:41 40.30951 -73.47292 13294 ft 392 kts 149°
2026-05-06 23:41 40.28839 -73.45073 13873 ft 396 kts 149°
2026-05-06 23:41 40.26675 -73.42807 14407 ft 400 kts 149°
2026-05-06 23:41 40.24487 -73.40522 14926 ft 404 kts 149°
2026-05-06 23:42 40.22266 -73.38240 15447 ft 407 kts 150°
2026-05-06 23:42 40.19987 -73.36029 15956 ft 409 kts 152°
2026-05-06 23:42 40.17656 -73.33859 16475 ft 413 kts 152°
2026-05-06 23:42 40.15220 -73.31903 16991 ft 407 kts 163°
2026-05-06 23:43 40.12570 -73.30740 17449 ft 398 kts 176°
2026-05-06 23:43 40.09846 -73.30392 17951 ft 391 kts 189°
2026-05-06 23:43 40.07178 -73.30831 18423 ft 383 kts 201°
2026-05-06 23:43 40.04695 -73.31990 18909 ft 376 kts 213°
2026-05-06 23:44 40.02507 -73.33789 19426 ft 368 kts 225°
2026-05-06 23:44 40.00563 -73.35961 19962 ft 368 kts 227°
2026-05-06 23:44 39.98623 -73.38142 20489 ft 369 kts 227°
2026-05-06 23:44 39.96673 -73.40328 21019 ft 370 kts 227°
2026-05-06 23:45 39.94710 -73.42522 21519 ft 372 kts 227°
2026-05-06 23:45 39.92765 -73.44687 21964 ft 373 kts 227°
2026-05-06 23:45 39.90784 -73.46891 22405 ft 375 kts 228°
2026-05-06 23:45 39.88790 -73.49110 22621 ft 376 kts 228°
2026-05-06 23:46 39.86804 -73.51322 22758 ft 375 kts 228°
2026-05-06 23:46 39.84819 -73.53531 22879 ft 376 kts 228°
2026-05-06 23:46 39.82833 -73.55743 22896 ft 376 kts 228°
2026-05-06 23:46 39.80848 -73.57955 22905 ft 376 kts 228°
2026-05-06 23:47 39.78861 -73.60169 22902 ft 376 kts 228°
2026-05-06 23:47 39.76877 -73.62379 22900 ft 376 kts 228°
2026-05-06 23:47 39.74892 -73.64587 22902 ft 376 kts 228°
2026-05-06 23:47 39.72903 -73.66796 22892 ft 376 kts 228°
2026-05-06 23:48 39.70935 -73.68977 22903 ft 376 kts 228°
2026-05-06 23:48 39.68940 -73.71183 22901 ft 376 kts 228°
2026-05-06 23:48 39.66942 -73.73392 22901 ft 376 kts 228°
2026-05-06 23:48 39.64949 -73.75595 22900 ft 376 kts 228°
2026-05-06 23:49 39.62958 -73.77791 22919 ft 378 kts 228°
2026-05-06 23:49 39.60949 -73.80013 23362 ft 380 kts 228°
2026-05-06 23:49 39.58934 -73.82239 23780 ft 381 kts 228°
2026-05-06 23:49 39.56911 -73.84476 24158 ft 383 kts 228°
2026-05-06 23:50 39.54881 -73.86722 24523 ft 384 kts 228°
2026-05-06 23:50 39.50795 -73.91237 25247 ft 388 kts 228°
2026-05-06 23:50 39.48734 -73.93501 25605 ft 389 kts 228°
2026-05-06 23:51 39.46660 -73.95771 25971 ft 391 kts 228°
2026-05-06 23:51 39.44573 -73.98053 26336 ft 393 kts 228°
2026-05-06 23:51 39.42486 -74.00339 26691 ft 394 kts 228°
2026-05-06 23:51 39.40388 -74.02638 27075 ft 395 kts 228°
2026-05-06 23:52 39.38288 -74.04934 27512 ft 395 kts 228°
2026-05-06 23:52 39.36197 -74.07214 27997 ft 393 kts 228°
2026-05-06 23:52 39.34137 -74.09466 28448 ft 392 kts 228°
2026-05-06 23:52 39.32057 -74.11742 28918 ft 391 kts 228°
2026-05-06 23:53 39.29978 -74.14011 29415 ft 390 kts 228°
2026-05-06 23:53 39.27910 -74.16261 29937 ft 388 kts 228°
2026-05-06 23:53 39.25844 -74.18502 30381 ft 387 kts 229°
2026-05-06 23:53 39.23792 -74.20729 30813 ft 385 kts 229°
2026-05-06 23:54 39.21751 -74.22948 31231 ft 383 kts 229°
2026-05-06 23:54 39.19718 -74.25161 31593 ft 383 kts 230°
2026-05-06 23:54 39.15661 -74.29574 31845 ft 382 kts 230°
2026-05-06 23:55 39.11535 -74.34064 31907 ft 394 kts 230°
2026-05-06 23:55 39.07322 -74.38618 31897 ft 395 kts 230°
2026-05-06 23:56 39.03114 -74.43153 31908 ft 394 kts 230°
2026-05-06 23:56 38.98906 -74.47679 31906 ft 394 kts 230°
2026-05-06 23:57 38.94697 -74.52210 31899 ft 395 kts 229°
2026-05-06 23:57 38.90573 -74.56840 31904 ft 392 kts 231°
2026-05-06 23:58 38.86573 -74.61596 31908 ft 392 kts 232°
2026-05-06 23:58 38.82576 -74.66354 31909 ft 392 kts 232°
2026-05-06 23:59 38.78555 -74.71055 31862 ft 393 kts 231°
2026-05-06 23:59 38.74510 -74.75743 31877 ft 395 kts 230°
2026-05-07 00:00 38.70270 -74.80284 31882 ft 399 kts 228°
2026-05-07 00:00 38.65914 -74.84713 31898 ft 400 kts 228°
2026-05-07 00:01 38.61567 -74.89155 31903 ft 400 kts 228°
2026-05-07 00:01 38.57247 -74.93635 31885 ft 400 kts 228°
2026-05-07 00:02 38.52934 -74.98122 31896 ft 400 kts 228°
2026-05-07 00:02 38.48745 -75.02753 31901 ft 398 kts 230°
2026-05-07 00:03 38.44469 -75.07291 31924 ft 401 kts 227°
2026-05-07 00:03 38.40000 -75.11598 31923 ft 403 kts 226°
2026-05-07 00:04 38.35847 -75.16189 31880 ft 396 kts 232°
2026-05-07 00:04 38.31898 -75.21077 31886 ft 396 kts 232°
2026-05-07 00:05 38.27948 -75.25980 31896 ft 396 kts 232°
2026-05-07 00:05 38.23988 -75.30887 31900 ft 397 kts 232°
2026-05-07 00:06 38.20029 -75.35780 31905 ft 397 kts 232°
2026-05-07 00:06 38.16060 -75.40678 31876 ft 398 kts 231°
2026-05-07 00:07 38.12079 -75.45593 31912 ft 399 kts 232°
2026-05-07 00:07 38.08098 -75.50494 31922 ft 398 kts 232°
2026-05-07 00:08 38.04106 -75.55375 31927 ft 398 kts 232°
2026-05-07 00:08 38.00125 -75.60248 31876 ft 398 kts 232°
2026-05-07 00:09 37.96106 -75.65180 31925 ft 407 kts 231°
2026-05-07 00:09 37.92039 -75.70156 31923 ft 410 kts 231°
2026-05-07 00:10 37.87926 -75.75162 31918 ft 410 kts 231°
2026-05-07 00:10 37.83811 -75.80162 31926 ft 408 kts 231°
2026-05-07 00:11 37.79742 -75.85108 31903 ft 405 kts 231°
2026-05-07 00:11 37.75669 -75.90050 31882 ft 407 kts 231°
2026-05-07 00:12 37.71574 -75.95024 31886 ft 409 kts 231°
2026-05-07 00:12 37.67460 -76.00005 31893 ft 411 kts 231°
2026-05-07 00:13 37.63323 -76.04997 31901 ft 411 kts 231°
2026-05-07 00:13 37.59208 -76.09954 31906 ft 412 kts 231°
2026-05-07 00:14 37.55056 -76.14948 31934 ft 412 kts 231°
2026-05-07 00:14 37.50918 -76.19913 31940 ft 410 kts 231°
2026-05-07 00:15 37.48858 -76.22385 31666 ft 408 kts 231°
2026-05-07 00:15 37.46801 -76.24856 31233 ft 409 kts 231°
2026-05-07 00:15 37.44737 -76.27333 30486 ft 411 kts 230°
2026-05-07 00:15 37.42658 -76.29829 29706 ft 414 kts 229°
2026-05-07 00:16 37.40559 -76.32345 28878 ft 417 kts 229°
2026-05-07 00:16 37.38449 -76.34873 28036 ft 421 kts 229°
2026-05-07 00:16 37.36314 -76.37431 27246 ft 427 kts 229°
2026-05-07 00:16 37.34151 -76.40019 26467 ft 430 kts 230°
2026-05-07 00:17 37.31984 -76.42601 25715 ft 428 kts 230°
2026-05-07 00:17 37.29829 -76.45156 24993 ft 424 kts 230°
2026-05-07 00:17 37.27691 -76.47686 24322 ft 420 kts 230°
2026-05-07 00:17 37.25664 -76.50276 24048 ft 412 kts 236°
2026-05-07 00:18 37.23872 -76.53070 23910 ft 410 kts 237°
2026-05-07 00:18 37.22092 -76.55853 23920 ft 409 kts 237°
2026-05-07 00:18 37.20315 -76.58635 23925 ft 409 kts 237°
2026-05-07 00:18 37.18538 -76.61418 23908 ft 409 kts 237°
2026-05-07 00:19 37.16752 -76.64214 23927 ft 412 kts 237°
2026-05-07 00:19 37.14957 -76.67017 23924 ft 413 kts 237°
2026-05-07 00:19 37.13155 -76.69822 23925 ft 413 kts 237°
2026-05-07 00:19 37.11371 -76.72590 23924 ft 413 kts 237°
2026-05-07 00:20 37.09540 -76.75424 23929 ft 413 kts 237°
2026-05-07 00:20 37.08342 -76.77276 23925 ft 413 kts 237°
2026-05-07 00:20 37.05941 -76.80986 23652 ft 412 kts 237°
2026-05-07 00:20 37.04139 -76.83769 23230 ft 410 kts 237°
2026-05-07 00:21 37.02348 -76.86534 22775 ft 408 kts 237°
2026-05-07 00:21 37.01144 -76.88393 22516 ft 406 kts 236°
2026-05-07 00:21 36.99397 -76.91092 22134 ft 403 kts 236°
2026-05-07 00:21 36.97637 -76.93815 21916 ft 403 kts 236°
2026-05-07 00:22 36.95866 -76.96550 21941 ft 406 kts 236°
2026-05-07 00:22 36.94080 -76.99299 21944 ft 407 kts 236°
2026-05-07 00:22 36.92290 -77.02046 21944 ft 408 kts 236°
2026-05-07 00:22 36.90497 -77.04795 21940 ft 408 kts 236°
2026-05-07 00:23 36.88705 -77.07541 21938 ft 408 kts 236°
2026-05-07 00:23 36.86915 -77.10291 21887 ft 406 kts 236°
2026-05-07 00:23 36.85148 -77.13001 21227 ft 400 kts 236°
2026-05-07 00:23 36.83398 -77.15683 20493 ft 397 kts 236°
2026-05-07 00:24 36.81657 -77.18349 20042 ft 395 kts 236°
2026-05-07 00:24 36.79920 -77.21010 19761 ft 395 kts 236°
2026-05-07 00:24 36.78182 -77.23661 19449 ft 394 kts 236°
2026-05-07 00:24 36.76436 -77.26285 19117 ft 392 kts 235°
2026-05-07 00:25 36.74703 -77.28861 18778 ft 390 kts 235°
2026-05-07 00:25 36.72961 -77.31441 18441 ft 388 kts 235°
2026-05-07 00:25 36.71228 -77.34007 18083 ft 386 kts 235°
2026-05-07 00:25 36.69506 -77.36560 17693 ft 384 kts 235°
2026-05-07 00:26 36.67794 -77.39099 17296 ft 382 kts 235°
2026-05-07 00:26 36.66093 -77.41627 16920 ft 380 kts 235°
2026-05-07 00:26 36.64399 -77.44141 16550 ft 378 kts 234°
2026-05-07 00:26 36.62708 -77.46644 16178 ft 377 kts 234°
2026-05-07 00:27 36.61027 -77.49133 15810 ft 375 kts 234°
2026-05-07 00:27 36.59352 -77.51612 15445 ft 374 kts 234°
2026-05-07 00:27 36.57681 -77.54085 15055 ft 372 kts 234°
2026-05-07 00:27 36.56015 -77.56549 14680 ft 371 kts 233°
2026-05-07 00:28 36.54356 -77.59001 14336 ft 369 kts 233°
2026-05-07 00:28 36.52707 -77.61437 13999 ft 367 kts 233°
2026-05-07 00:28 36.51063 -77.63862 13644 ft 366 kts 233°
2026-05-07 00:28 36.49424 -77.66274 13260 ft 364 kts 233°
2026-05-07 00:29 36.47793 -77.68674 12878 ft 362 kts 233°
2026-05-07 00:29 36.46174 -77.71056 12489 ft 360 kts 233°
2026-05-07 00:30 36.41376 -77.78112 11391 ft 353 kts 233°
2026-05-07 00:30 36.39798 -77.80426 11033 ft 350 kts 233°
2026-05-07 00:30 36.38224 -77.82730 10772 ft 349 kts 232°
2026-05-07 00:30 36.36674 -77.84995 10633 ft 348 kts 232°
2026-05-07 00:31 36.35109 -77.87284 10514 ft 348 kts 233°
2026-05-07 00:31 36.33545 -77.89576 10396 ft 347 kts 233°
2026-05-07 00:31 36.31986 -77.91862 10282 ft 346 kts 233°
2026-05-07 00:31 36.30432 -77.94140 10166 ft 346 kts 233°
2026-05-07 00:32 36.28878 -77.96415 10032 ft 345 kts 232°
2026-05-07 00:32 36.27328 -77.98677 9974 ft 343 kts 232°
2026-05-07 00:32 36.25778 -78.00931 9985 ft 344 kts 232°
2026-05-07 00:32 36.24225 -78.03186 9992 ft 344 kts 232°
2026-05-07 00:33 36.22846 -78.05595 9988 ft 339 kts 243°
2026-05-07 00:33 36.21879 -78.08157 9992 ft 317 kts 247°
2026-05-07 00:33 36.20995 -78.10563 9994 ft 298 kts 247°
2026-05-07 00:33 36.20179 -78.12845 9994 ft 281 kts 249°
2026-05-07 00:34 36.19442 -78.15019 9905 ft 269 kts 249°
2026-05-07 00:34 36.18741 -78.17135 9651 ft 262 kts 249°
2026-05-07 00:34 36.18059 -78.19200 9366 ft 258 kts 249°
2026-05-07 00:34 36.17381 -78.21248 9029 ft 256 kts 249°
2026-05-07 00:35 36.16707 -78.23278 8706 ft 254 kts 249°
2026-05-07 00:35 36.16034 -78.25298 8359 ft 253 kts 249°
2026-05-07 00:35 36.15362 -78.27304 8042 ft 252 kts 249°
2026-05-07 00:35 36.14837 -78.29359 7720 ft 250 kts 258°
2026-05-07 00:36 36.14472 -78.31458 7398 ft 249 kts 258°
2026-05-07 00:36 36.14099 -78.33546 7095 ft 248 kts 258°
2026-05-07 00:36 36.13727 -78.35625 6763 ft 247 kts 258°
2026-05-07 00:36 36.13355 -78.37694 6395 ft 246 kts 258°
2026-05-07 00:37 36.12985 -78.39759 6035 ft 245 kts 258°
2026-05-07 00:37 36.12615 -78.41807 5672 ft 243 kts 258°
2026-05-07 00:37 36.12253 -78.43817 5351 ft 241 kts 257°
2026-05-07 00:37 36.11896 -78.45822 5226 ft 230 kts 258°
2026-05-07 00:38 36.11556 -78.47713 5118 ft 220 kts 257°
2026-05-07 00:38 36.11235 -78.49483 5025 ft 207 kts 258°
2026-05-07 00:38 36.10927 -78.51185 5009 ft 201 kts 257°
2026-05-07 00:38 36.10600 -78.52871 5008 ft 202 kts 253°
2026-05-07 00:39 36.10144 -78.54509 5004 ft 201 kts 251°
2026-05-07 00:39 36.09634 -78.56118 5008 ft 201 kts 245°
2026-05-07 00:39 36.08855 -78.57566 5007 ft 204 kts 235°
2026-05-07 00:39 36.08039 -78.58999 5005 ft 204 kts 231°
2026-05-07 00:40 36.06872 -78.60021 5010 ft 210 kts 213°
2026-05-07 00:40 36.05554 -78.60819 5009 ft 211 kts 211°
2026-05-07 00:40 36.04222 -78.61581 5007 ft 211 kts 210°
2026-05-07 00:40 36.02894 -78.62333 5006 ft 210 kts 210°
2026-05-07 00:41 36.01581 -78.63121 4917 ft 210 kts 216°
2026-05-07 00:41 36.00424 -78.64206 4545 ft 209 kts 227°
2026-05-07 00:41 35.99381 -78.65501 4057 ft 215 kts 229°
2026-05-07 00:41 35.98351 -78.66795 3648 ft 207 kts 227°
2026-05-07 00:42 35.97339 -78.68004 3261 ft 198 kts 226°
2026-05-07 00:42 35.96348 -78.69138 2845 ft 192 kts 225°
2026-05-07 00:42 35.95418 -78.70328 2323 ft 193 kts 230°
2026-05-07 00:42 35.94509 -78.71529 1895 ft 190 kts 226°
2026-05-07 00:43 35.93581 -78.72651 1601 ft 184 kts 225°
2026-05-07 00:43 35.92705 -78.73709 1385 ft 168 kts 224°
2026-05-07 00:43 35.91916 -78.74681 1139 ft 155 kts 226°
2026-05-07 00:43 35.91188 -78.75597 991 ft 146 kts 224°
2026-05-07 00:44 35.90501 -78.76440 755 ft 137 kts 225°
2026-05-07 00:44 35.89820 -78.77274 584 ft 139 kts 225°
2026-05-07 00:44 35.89136 -78.78113 430 ft 138 kts 224°
2026-05-07 00:44 35.88543 -78.78841 425 ft 98 kts 225°
2026-05-07 00:45 35.88183 -78.79283 434 ft 48 kts 225°
2026-05-07 00:45 35.88021 -78.79473 432 ft 21 kts 206°
2026-05-07 00:45 35.87920 -78.79452 423 ft 11 kts 165°
2026-05-07 00:45 35.87875 -78.79478 424 ft 4 kts 221°
2026-05-07 00:46 35.87854 -78.79502 428 ft 2 kts 226°
2026-05-07 00:46 35.87832 -78.79530 428 ft 7 kts 225°
2026-05-07 00:46 35.87799 -78.79571 421 ft 7 kts 224°
2026-05-07 00:46 35.87765 -78.79611 429 ft 7 kts 224°
2026-05-07 00:47 35.87719 -78.79659 420 ft 10 kts 208°
2026-05-07 00:47 35.87665 -78.79672 424 ft 8 kts 170°
2026-05-07 00:47 35.87640 -78.79619 422 ft 3 kts 28°
2026-05-07 00:47 35.87658 -78.79626 414 ft 1 kts 353°
2026-05-07 00:48 35.87665 -78.79621 422 ft 3 kts 30°
2026-05-07 00:48 35.87665 -78.79591 420 ft 6 kts 108°
2026-05-07 00:48 35.87638 -78.79556 421 ft 3 kts 135°
2026-05-07 00:48 35.87635 -78.79552 421 ft 0 kts 134°